User: anonymous   Login
Location: Nairn
(57.5833°N, 3.8667°W)
Time: 16:22:00
(UTC+00:00)
Language:

AQUA - Orbit

View from above orbital plane
View from above orbital plane
View from above satellite
View from above satellite

Ground track
Ground track

The orbit data is extracted from the following two-line orbital elements,

1 27424U 02022A   20293.15014074  .00000094  00000-0  30931-4 0  9996
2 27424  98.2008 231.9590 0001479  16.4971  45.3735 14.57121987981938
Epoch (UTC): 19 October 2020 03:36:12
Eccentricity: 0.0001479
inclination: 98.2008°
perigee height: 701 km
apogee height: 703 km
right ascension of ascending node: 231.9590°
argument of perigee: 16.4971°
revolutions per day: 14.57121987
mean anomaly at epoch: 45.3735°
orbit number at epoch: 98193

The dashed part of the orbit path shows where the satellite is in the earth's shadow,  

DLR